This is the latest recevied weather packets stored in our database for station/object XE2OR-10. If no packets are shown the sender has not sent any weather packets the latest 10 day(s).
| Time | Temp. | Humidity | Pressure | Rain* | Wind** | Luminosity | Snow |
|---|---|---|---|---|---|---|---|
| 1777853929 | 26.11° C | 55% | 1020.1 hPa | 0 mm | - | 35 W/m² | - |
| 1777853632 | 26.11° C | 55% | 1019.9 hPa | 0 mm | - | 38 W/m² | - |
| 1777853328 | 26.67° C | 55% | 1020.2 hPa | 0 mm | - | 44 W/m² | - |
| 1777853029 | 26.67° C | 54% | 1020.2 hPa | 0 mm | - | 82 W/m² | - |
| 1777852729 | 26.67° C | 54% | 1020.2 hPa | 0 mm | - | 103 W/m² | - |
| 1777852432 | 26.67° C | 54% | 1020.3 hPa | 0 mm | - | 91 W/m² | - |
| 1777852129 | 26.67° C | 54% | 1020.5 hPa | 0 mm | - | 108 W/m² | - |
| 1777851832 | 26.67° C | 54% | 1020.4 hPa | 0 mm | - | 83 W/m² | - |
| 1777851528 | 26.67° C | 53% | 1020.4 hPa | 0 mm | - | 102 W/m² | - |
| 1777851229 | 27.22° C | 53% | 1020.1 hPa | 0 mm | - | 100 W/m² | - |
| 1777850929 | 27.78° C | 52% | 1020.3 hPa | 0 mm | - | 228 W/m² | - |
| 1777850633 | 27.22° C | 53% | 1020.2 hPa | 0 mm | - | 260 W/m² | - |
| 1777850329 | 28.33° C | 51% | 1020.4 hPa | 0 mm | - | 258 W/m² | - |
| 1777850033 | 27.78° C | 51% | 1020.3 hPa | 0 mm | - | 258 W/m² | - |
| 1777849729 | 27.78° C | 52% | 1020.2 hPa | 0 mm | - | 303 W/m² | - |
| 1777849429 | 27.78° C | 52% | 1020.5 hPa | 0 mm | - | 373 W/m² | - |
| 1777849129 | 27.22° C | 53% | 1020.3 hPa | 0 mm | - | 381 W/m² | - |
| 1777848833 | 27.78° C | 51% | 1020.3 hPa | 0 mm | - | 363 W/m² | - |
| 1777848529 | 27.78° C | 52% | 1020.5 hPa | 0 mm | - | 402 W/m² | - |
| 1777848233 | 28.33° C | 51% | 1020.8 hPa | 0 mm | - | 367 W/m² | - |
| 1777847929 | 27.78° C | 52% | 1020.6 hPa | 0 mm | - | 402 W/m² | - |
| 1777847629 | 27.78° C | 52% | 1020.8 hPa | 0 mm | - | 449 W/m² | - |
| 1777847329 | 27.78° C | 52% | 1020.6 hPa | 0 mm | - | 410 W/m² | - |
| 1777847033 | 27.78° C | 53% | 1020.5 hPa | 0 mm | - | 460 W/m² | - |
| 1777846729 | 27.78° C | 51% | 1020.5 hPa | 0 mm | - | 514 W/m² | - |
* Rain latest hour (hover to see other rain measurements)
** Current wind speed in m/s (hover to see current wind gust speed)